SCP
0 0 0 0 0 0 0 0 0 0 0 0 0 0 0 0 0 -0 0 0 1 0 0 0 1 1 1 1 0 -0 -0 -1 -2 -1 -1 -1 -1 -1 -2 -2 -1 -1 -1 -1
0 0 0 0 0 0 0 0 0 0 0 0 0 0 0 0 0 0 0 0 1 1 0 1 1 2 1 1 1 1 0 -1 -1 -1 -2 -1 -1 -1 -1 -1 -1 -1 -1 -2
0 0 0 0 0 0 0 0 0 0 0 0 0 0 0 0 0 0 0 0 0 0 1 1 1 1 2 1 2 2 1 0 -1 -2 -2 -1 -1 -1 -1 -1 -1 -1 -1 -2
0 0 0 0 0 0 0 0 0 0 0 0 0 0 0 0 0 0 0 0 0 0 0 0 0 0 2 2 2 1 1 1 1 -1 -2 -1 -0 -1 -0 0 -0 -1 -1 -1
0 0 0 0 0 0 0 0 0 0 0 0 0 0 0 0 0 0 0 0 0 0 0 0 0 0 2 2 2 3 1 0 1 1 0 1 1 0 1 1 1 0 0 -0
0 0 0 0 0 0 0 0 0 0 0 0 0 0 0 0 0 0 0 1 1 0 0 0 1 0 3 2 3 2 1 1 2 2 3 4 3 2 2 2 1 2 1 1
0 0 0 0 0 0 0 0 0 0 0 0 0 1 1 0 0 0 0 1 1 1 1 1 2 2 2 2 1 0 1 3 3 3 3 6 6 4 3 3 2 1 1 1
0 0 0 0 0 0 0 0 0 0 0 0 0 0 0 0 0 0 1 0 1 1 1 1 2 2 3 2 1 3 4 4 4 4 4 5 7 6 4 4 3 3 3 3
0 0 0 0 0 0 0 0 0 0 0 0 0 0 0 0 0 0 0 0 0 2 1 1 2 4 3 1 2 2 3 4 6 6 6 5 6 6 6 4 4 4 3 3
0 0 0 0 0 0 0 0 0 0 0 0 0 0 0 0 0 0 0 0 0 1 2 2 3 2 3 4 4 3 4 5 5 5 5 4 5 5 5 4 4 3 4 3
0 0 0 0 0 0 0 0 0 0 0 0 0 0 0 0 0 0 0 0 1 4 4 5 5 6 4 3 4 4 5 5 6 5 5 5 5 5 5 4 3 5 4 5
0 0 0 0 0 0 0 0 0 0 0 0 0 0 0 0 0 0 0 0 1 4 3 5 3 3 3 4 3 4 5 6 5 4 5 5 2 0 0 0 0 0 0 6
0 0 0 0 0 0 0 0 0 0 0 0 0 0 0 0 0 0 0 0 0 2 2 3 3 2 2 4 3 3 4 4 4 3 5 4 5 4 0 0 0 0 0 0
-0 0 -0 0 0 0 0 0 0 0 0 0 0 0 0 -0 -0 0 0 -0 -0 1 1 1 1 2 1 3 5 3 5 3 3 3 7 4 5 5 4 1 1 0 0 0
-0 0 0 -0 0 0 0 0 0 0 0 0 0 0 -0 -0 -0 -0 -0 -0 -0 -0 -0 -0 1 1 -0 3 5 6 7 11 11 12 11 9 8 7 5 7 7 0 0 0
0 0 0 0 0 0 0 0 0 0 0 0 0 0 0 0 0 0 0 -0 -0 -1 -1 -1 1 2 2 3 4 6 8 7 11 10 12 11 6 4 4 4 3 1 1 0
-0 -0 0 0 0 0 0 0 0 0 0 0 0 0 0 0 0 0 0 0 -2 -1 -1 -2 0 5 4 3 2 2 3 3 4 5 5 4 4 4 3 2 2 2 0 0
0 -0 -0 0 0 0 0 0 0 0 0 0 0 0 0 0 0 0 0 0 0 0 0 1 2 3 4 3 2 1 2 2 2 2 3 3 2 2 1 1 1 0 0 0
-0 -0 -0 -0 0 0 0 0 0 0 0 0 0 0 0 0 0 0 0 0 0 0 0 0 0 0 0 0 1 1 2 2 3 3 2 0 0 0 0 0 0 0 0 0
-0 -0 -0 -0 -0 -0 -0 0 0 0 0 0 0 0 0 0 0 0 0 0 0 0 0 0 0 0 0 0 0 0 0 0 0 0 0 0 0 0 0 0 0 0 0 0
0 0 -0 0 0 0 -0 0 0 0 0 0 0 0 0 0 0 0 0 0 0 0 0 0 0 0 0 0 0 0 0 0 0 0 0 0 0 0 0 0 0 0 0 0
-0 -0 -0 -0 -0 -0 -0 -0 0 0 0 0 0 0 0 0 0 0 0 0 0 0 0 0 0 0 0 0 0 0 0 0 0 0 0 0 0 0 0 0 0 0 0 0
-0 0 -0 -0 -0 -0 -0 -0 -0 -0 -0 -0 0 0 0 0 0 0 0 0 0 0 0 0 0 0 0 0 0 0 0 0 0 0 0 0 0 0 0 0 0 0 0 0
0 0 0 -0 -0 0 0 -0 -0 -0 -0 -0 -0 -0 -0 -0 -0 -0 -0 0 0 0 0 0 0 0 0 0 0 0 0 0 0 0 0 0 0 0 0 0 0 0 0 0
-0 -0 -0 0 0 0 -0 -0 0 -0 0 0 0 -0 0 -0 -0 -0 -0 -0 0 0 0 0 0 0 0 0 0 0 0 0 0 0 0 0 0 0 0 0 0 0 0 0
-0 0 -0 0 -0 -0 -0 0 0 0 0 -0 -0 0 0 0 0 0 -0 -0 -0 -0 -0 0 0 0 0 0 0 0 0 0 0 0 0 0 0 0 0 0 0 0 0 0
-0 0 0 0 -0 0 0 0 0 0 -0 0 -0 -0 0 0 0 0 0 0 0 0 0 0 0 0 0 0 0 0 0 0 0 0 0 0 0 0 0 0 0 0 0 0
Wind_Speed_500mb
55 48 44 54 54 59 60 41 44 37 35 26 22 20 11 19 38 48 50 47 49 62 82 87 85 90 92 86 86 86 88 91 93 88 89 87 88 90 89 87 89 87 86 84
35 43 41 35 62 61 58 58 46 49 34 34 31 33 22 29 26 28 24 22 18 13 16 34 76 79 88 91 85 86 87 94 91 88 86 89 91 93 90 89 87 88 89 89
32 35 44 38 31 54 51 52 48 40 30 38 40 36 27 26 17 17 11 11 17 13 15 21 26 65 76 88 87 80 86 85 93 93 93 91 90 90 94 95 91 89 89 91
18 23 37 21 24 31 28 50 49 37 30 22 35 46 41 26 13 7 7 3 6 13 22 23 35 36 54 62 71 79 83 82 82 89 94 93 91 90 90 94 98 97 97 95
10 15 14 23 28 36 21 18 11 37 36 19 25 25 29 24 21 17 16 14 16 21 27 30 38 45 57 61 64 70 77 86 85 85 90 94 96 94 91 89 95 102 103 103
17 14 23 18 32 11 25 24 18 9 4 14 14 11 14 26 20 16 14 11 13 14 18 19 12 26 57 64 66 67 61 62 79 88 86 95 98 97 93 91 92 91 97 100
19 13 8 23 32 8 19 11 37 48 30 5 9 22 26 22 21 18 17 20 21 23 28 29 24 21 22 26 57 54 51 59 60 68 83 89 90 90 90 89 85 89 89 89
23 26 22 40 22 13 15 32 37 44 46 41 33 28 27 24 22 22 24 26 25 26 31 38 33 31 43 48 40 39 54 61 62 59 66 82 85 88 86 81 80 79 80 82
17 25 22 35 36 36 27 18 25 28 30 27 27 27 26 27 32 29 33 34 33 33 38 34 31 34 41 53 52 63 53 53 63 61 61 65 71 81 74 75 78 78 76 75
22 32 33 30 29 29 25 22 20 23 26 26 29 33 35 31 36 38 40 43 44 41 42 37 28 32 41 53 56 54 54 57 60 63 61 58 60 64 68 70 74 71 62 66
33 34 37 51 45 42 40 35 32 32 32 33 35 37 33 37 46 48 48 44 44 53 35 30 32 23 30 29 33 42 47 54 57 58 58 59 58 54 59 61 62 60 60 44
31 56 52 50 49 43 50 53 49 43 45 42 36 37 39 43 43 47 53 48 49 45 38 38 37 38 40 31 27 34 43 47 50 50 52 54 61 65 60 62 62 55 47 47
66 80 82 77 78 62 58 48 40 43 42 46 42 41 46 52 54 52 55 50 44 46 42 42 41 44 41 35 28 38 40 39 41 47 49 52 56 66 58 60 52 52 48 48
114 97 96 98 70 61 55 53 51 55 58 52 49 53 54 55 54 54 50 47 42 44 41 31 33 38 43 30 27 28 34 39 40 44 46 42 51 40 43 45 45 44 44 50
42 81 110 87 69 70 65 61 58 54 60 65 60 62 58 61 60 55 51 44 41 42 41 33 28 21 20 18 28 34 37 26 34 32 35 38 39 35 28 24 25 28 20 33
33 29 29 52 63 64 64 60 59 63 58 60 60 63 63 64 62 57 48 49 47 50 41 39 38 29 15 15 23 30 40 46 32 36 40 37 26 25 27 26 22 13 9 14
40 37 15 27 41 55 63 67 67 68 67 69 65 64 67 69 63 58 55 47 34 40 38 43 47 33 25 27 17 23 28 40 31 30 26 23 26 26 26 22 23 19 19 17
98 98 85 14 44 37 41 48 47 53 60 67 75 71 67 69 72 69 38 35 31 30 23 37 36 37 28 26 30 26 28 33 34 34 30 27 23 16 15 16 17 20 18 19
95 97 108 104 67 27 20 18 21 24 15 17 23 28 27 17 29 33 41 49 45 34 34 31 48 47 42 35 32 36 38 39 44 40 39 31 27 22 22 22 22 18 15 19
82 91 97 101 103 94 76 65 82 78 72 86 92 89 85 76 87 77 69 88 65 52 38 54 68 68 56 50 54 53 51 45 41 44 35 29 32 28 26 28 22 19 20 15
88 73 79 81 77 82 89 85 88 89 96 114 115 103 100 107 105 105 112 103 73 69 80 73 69 72 62 69 73 73 65 62 57 52 51 47 42 44 38 31 31 30 27 23
56 68 57 73 73 75 73 78 83 78 82 85 87 90 95 99 101 110 99 91 81 83 87 75 85 74 66 61 58 57 51 46 44 41 39 36 32 33 32 28 21 16 15 16
54 58 50 47 63 72 71 77 69 61 63 72 77 81 81 82 83 92 84 74 83 89 82 77 73 76 82 83 78 68 58 54 52 51 47 46 42 38 36 30 25 18 12 9
44 48 51 44 50 50 53 50 50 54 66 70 69 69 64 63 71 68 54 50 50 66 69 69 66 70 76 69 67 69 67 61 59 53 42 35 35 35 36 41 41 35 29 23
44 34 44 43 47 44 44 44 51 54 57 58 56 54 54 59 57 48 47 47 43 48 48 44 47 56 58 50 50 53 54 52 41 39 42 37 35 38 44 40 37 40 45 40
37 33 33 37 39 40 39 41 44 42 43 48 49 48 47 48 43 43 41 42 40 36 45 37 39 39 40 40 40 35 50 48 40 38 35 32 31 27 27 25 24 22 22 19
31 30 30 33 29 29 34 39 39 39 44 40 42 41 39 38 37 36 33 35 32 34 36 32 35 37 35 32 32 32 33 30 30 27 25 25 25 28 28 29 29 24 20 15
Wind_Direction_500mb
240 237 224 195 209 213 216 215 218 216 208 148 140 148 155 134 182 207 186 207 189 192 187 187 192 200 202 205 208 209 215 217 227 234 231 231 232 235 239 239 238 239 239 240
264 265 272 269 199 213 216 226 204 238 207 131 129 133 149 109 86 69 82 106 123 155 167 173 196 196 206 205 209 210 216 219 225 234 235 232 233 233 234 238 239 238 239 241
252 249 246 243 244 202 218 213 223 216 230 143 142 136 140 129 105 119 109 113 140 163 193 202 188 201 204 210 208 212 219 223 223 230 232 234 236 234 233 235 237 237 239 240
275 273 246 253 224 253 233 216 212 225 219 191 160 138 122 127 123 122 157 262 285 250 233 223 217 216 208 207 211 217 219 224 225 224 229 232 236 237 235 235 235 237 238 240
254 238 227 248 219 215 235 223 254 219 223 102 82 101 110 128 160 190 243 256 272 261 262 241 217 216 215 211 215 219 225 224 225 225 227 229 232 237 238 235 234 236 240 241
297 268 221 244 242 189 209 231 285 281 332 134 122 166 80 53 50 43 38 6 344 319 301 284 253 230 206 212 206 219 228 232 228 227 226 230 232 236 237 238 238 236 240 245
242 261 262 352 359 105 170 61 26 31 18 172 79 71 72 51 41 25 10 349 336 323 310 296 281 267 260 216 211 227 247 243 239 235 229 228 229 232 235 233 232 238 242 246
236 240 235 46 342 36 44 52 38 36 30 33 35 40 32 21 11 4 355 347 339 325 301 287 281 274 260 259 236 238 239 241 243 240 234 225 227 227 231 229 232 233 238 241
240 239 290 340 2 9 23 32 29 25 14 9 2 356 346 342 347 345 345 340 327 319 309 284 274 263 260 262 257 246 241 242 240 242 238 226 224 224 221 226 230 232 231 239
266 275 295 305 318 320 333 340 336 330 335 326 329 328 329 334 333 337 335 330 313 316 305 288 276 268 260 250 248 250 232 234 233 231 230 227 218 225 225 224 228 227 234 235
293 292 284 286 285 293 300 298 298 299 301 300 306 305 310 315 320 321 320 316 306 321 320 317 280 250 245 264 267 232 225 226 223 221 222 219 209 215 221 222 224 230 231 233
297 306 311 304 292 282 270 267 272 278 279 281 285 293 298 299 301 303 308 309 310 320 305 311 290 275 264 262 244 234 227 216 212 207 212 204 213 212 208 215 221 223 221 223
283 282 284 284 285 288 291 276 267 272 273 277 277 283 289 294 296 296 294 299 297 300 293 287 281 291 287 242 230 226 211 211 207 205 208 202 213 217 217 214 219 221 224 225
263 265 269 260 256 264 266 268 266 270 272 278 277 283 283 287 291 288 288 291 289 286 280 275 279 287 298 228 206 210 205 209 203 202 203 201 210 216 218 226 227 229 230 235
275 254 247 254 253 253 255 258 259 264 264 268 272 278 283 289 287 281 282 289 289 271 266 255 254 269 288 221 209 199 192 175 179 184 177 187 183 184 177 191 187 212 232 231
357 347 250 236 240 240 243 250 254 252 257 264 267 270 276 282 280 290 289 289 277 268 243 239 228 231 180 211 186 179 182 178 157 165 155 146 139 151 166 167 167 151 147 241
8 359 304 238 230 231 237 243 252 258 254 256 262 271 272 270 269 275 276 282 261 237 236 227 212 191 186 196 196 191 173 166 159 146 141 143 153 161 162 168 175 173 212 226
33 22 18 359 230 230 235 241 248 254 252 254 261 263 271 265 264 264 265 199 206 191 183 187 172 174 170 191 182 168 157 148 147 148 147 150 145 151 163 168 181 210 225 227
34 25 26 34 63 111 122 152 130 131 161 162 123 100 92 145 174 177 177 146 127 129 125 119 153 157 159 167 155 152 134 120 118 124 130 115 120 127 128 132 127 126 118 107
34 38 41 38 45 59 66 73 81 76 76 82 91 89 71 66 81 78 67 83 78 76 100 88 92 113 114 126 115 102 113 107 112 113 119 128 113 111 113 111 108 105 99 86
31 37 52 50 50 54 59 61 68 68 66 71 75 72 66 70 73 77 64 61 65 68 77 86 86 95 99 109 111 109 106 94 97 103 101 98 105 111 114 110 115 113 120 95
26 35 47 56 55 55 60 63 62 59 58 63 67 65 67 67 65 67 64 62 62 67 67 67 79 83 88 88 89 87 90 93 99 108 113 109 102 104 106 102 96 113 121 115
21 24 37 50 55 60 64 64 65 66 66 66 67 67 65 59 59 67 64 55 57 58 52 50 62 75 81 85 80 74 75 76 80 82 81 81 84 86 82 77 76 70 64 52
19 28 31 49 57 67 68 62 63 68 69 69 68 68 66 64 60 59 65 69 69 70 66 56 43 56 63 67 75 81 83 78 67 62 65 77 88 90 93 84 65 60 58 61
12 34 38 38 40 51 56 64 65 62 61 62 64 66 68 69 71 72 67 56 58 73 74 73 65 62 63 71 78 74 70 68 73 85 83 76 74 76 87 93 97 100 86 56
30 25 38 37 39 43 44 49 50 55 62 60 57 56 57 59 62 62 59 61 63 60 63 71 74 71 71 71 65 71 79 79 76 78 74 64 61 66 78 85 91 82 70 64
38 30 31 42 41 38 37 44 45 38 41 50 52 47 46 46 47 49 52 56 57 59 64 58 61 64 69 67 69 71 67 68 76 75 72 69 64 61 48 39 37 32 27 22
Wind_Speed_850mb
55 48 44 54 54 59 60 41 44 37 35 26 22 20 11 19 38 48 50 47 49 62 82 87 85 90 92 86 86 86 88 91 93 88 89 87 88 90 89 87 89 87 86 84
35 43 41 35 62 61 58 58 46 49 34 34 31 33 22 29 26 28 24 22 18 13 16 34 76 79 88 91 85 86 87 94 91 88 86 89 91 93 90 89 87 88 89 89
32 35 44 38 31 54 51 52 48 40 30 38 40 36 27 26 17 17 11 11 17 13 15 21 26 65 76 88 87 80 86 85 93 93 93 91 90 90 94 95 91 89 89 91
18 23 37 21 24 31 28 50 49 37 30 22 35 46 41 26 13 7 7 3 6 13 22 23 35 36 54 62 71 79 83 82 82 89 94 93 91 90 90 94 98 97 97 95
10 15 14 23 28 36 21 18 11 37 36 19 25 25 29 24 21 17 16 14 16 21 27 30 38 45 57 61 64 70 77 86 85 85 90 94 96 94 91 89 95 102 103 103
17 14 23 18 32 11 25 24 18 9 4 14 14 11 14 26 20 16 14 11 13 14 18 19 12 26 57 64 66 67 61 62 79 88 86 95 98 97 93 91 92 91 97 100
19 13 8 23 32 8 19 11 37 48 30 5 9 22 26 22 21 18 17 20 21 23 28 29 24 21 22 26 57 54 51 59 60 68 83 89 90 90 90 89 85 89 89 89
23 26 22 40 22 13 15 32 37 44 46 41 33 28 27 24 22 22 24 26 25 26 31 38 33 31 43 48 40 39 54 61 62 59 66 82 85 88 86 81 80 79 80 82
17 25 22 35 36 36 27 18 25 28 30 27 27 27 26 27 32 29 33 34 33 33 38 34 31 34 41 53 52 63 53 53 63 61 61 65 71 81 74 75 78 78 76 75
22 32 33 30 29 29 25 22 20 23 26 26 29 33 35 31 36 38 40 43 44 41 42 37 28 32 41 53 56 54 54 57 60 63 61 58 60 64 68 70 74 71 62 66
33 34 37 51 45 42 40 35 32 32 32 33 35 37 33 37 46 48 48 44 44 53 35 30 32 23 30 29 33 42 47 54 57 58 58 59 58 54 59 61 62 60 60 44
31 56 52 50 49 43 50 53 49 43 45 42 36 37 39 43 43 47 53 48 49 45 38 38 37 38 40 31 27 34 43 47 50 50 52 54 61 65 60 62 62 55 47 47
66 80 82 77 78 62 58 48 40 43 42 46 42 41 46 52 54 52 55 50 44 46 42 42 41 44 41 35 28 38 40 39 41 47 49 52 56 66 58 60 52 52 48 48
114 97 96 98 70 61 55 53 51 55 58 52 49 53 54 55 54 54 50 47 42 44 41 31 33 38 43 30 27 28 34 39 40 44 46 42 51 40 43 45 45 44 44 50
42 81 110 87 69 70 65 61 58 54 60 65 60 62 58 61 60 55 51 44 41 42 41 33 28 21 20 18 28 34 37 26 34 32 35 38 39 35 28 24 25 28 20 33
33 29 29 52 63 64 64 60 59 63 58 60 60 63 63 64 62 57 48 49 47 50 41 39 38 29 15 15 23 30 40 46 32 36 40 37 26 25 27 26 22 13 9 14
40 37 15 27 41 55 63 67 67 68 67 69 65 64 67 69 63 58 55 47 34 40 38 43 47 33 25 27 17 23 28 40 31 30 26 23 26 26 26 22 23 19 19 17
98 98 85 14 44 37 41 48 47 53 60 67 75 71 67 69 72 69 38 35 31 30 23 37 36 37 28 26 30 26 28 33 34 34 30 27 23 16 15 16 17 20 18 19
95 97 108 104 67 27 20 18 21 24 15 17 23 28 27 17 29 33 41 49 45 34 34 31 48 47 42 35 32 36 38 39 44 40 39 31 27 22 22 22 22 18 15 19
82 91 97 101 103 94 76 65 82 78 72 86 92 89 85 76 87 77 69 88 65 52 38 54 68 68 56 50 54 53 51 45 41 44 35 29 32 28 26 28 22 19 20 15
88 73 79 81 77 82 89 85 88 89 96 114 115 103 100 107 105 105 112 103 73 69 80 73 69 72 62 69 73 73 65 62 57 52 51 47 42 44 38 31 31 30 27 23
56 68 57 73 73 75 73 78 83 78 82 85 87 90 95 99 101 110 99 91 81 83 87 75 85 74 66 61 58 57 51 46 44 41 39 36 32 33 32 28 21 16 15 16
54 58 50 47 63 72 71 77 69 61 63 72 77 81 81 82 83 92 84 74 83 89 82 77 73 76 82 83 78 68 58 54 52 51 47 46 42 38 36 30 25 18 12 9
44 48 51 44 50 50 53 50 50 54 66 70 69 69 64 63 71 68 54 50 50 66 69 69 66 70 76 69 67 69 67 61 59 53 42 35 35 35 36 41 41 35 29 23
44 34 44 43 47 44 44 44 51 54 57 58 56 54 54 59 57 48 47 47 43 48 48 44 47 56 58 50 50 53 54 52 41 39 42 37 35 38 44 40 37 40 45 40
37 33 33 37 39 40 39 41 44 42 43 48 49 48 47 48 43 43 41 42 40 36 45 37 39 39 40 40 40 35 50 48 40 38 35 32 31 27 27 25 24 22 22 19
31 30 30 33 29 29 34 39 39 39 44 40 42 41 39 38 37 36 33 35 32 34 36 32 35 37 35 32 32 32 33 30 30 27 25 25 25 28 28 29 29 24 20 15
Wind_Direction_850mb
240 237 224 195 209 213 216 215 218 216 208 148 140 148 155 134 182 207 186 207 189 192 187 187 192 200 202 205 208 209 215 217 227 234 231 231 232 235 239 239 238 239 239 240
264 265 272 269 199 213 216 226 204 238 207 131 129 133 149 109 86 69 82 106 123 155 167 173 196 196 206 205 209 210 216 219 225 234 235 232 233 233 234 238 239 238 239 241
252 249 246 243 244 202 218 213 223 216 230 143 142 136 140 129 105 119 109 113 140 163 193 202 188 201 204 210 208 212 219 223 223 230 232 234 236 234 233 235 237 237 239 240
275 273 246 253 224 253 233 216 212 225 219 191 160 138 122 127 123 122 157 262 285 250 233 223 217 216 208 207 211 217 219 224 225 224 229 232 236 237 235 235 235 237 238 240
254 238 227 248 219 215 235 223 254 219 223 102 82 101 110 128 160 190 243 256 272 261 262 241 217 216 215 211 215 219 225 224 225 225 227 229 232 237 238 235 234 236 240 241
297 268 221 244 242 189 209 231 285 281 332 134 122 166 80 53 50 43 38 6 344 319 301 284 253 230 206 212 206 219 228 232 228 227 226 230 232 236 237 238 238 236 240 245
242 261 262 352 359 105 170 61 26 31 18 172 79 71 72 51 41 25 10 349 336 323 310 296 281 267 260 216 211 227 247 243 239 235 229 228 229 232 235 233 232 238 242 246
236 240 235 46 342 36 44 52 38 36 30 33 35 40 32 21 11 4 355 347 339 325 301 287 281 274 260 259 236 238 239 241 243 240 234 225 227 227 231 229 232 233 238 241
240 239 290 340 2 9 23 32 29 25 14 9 2 356 346 342 347 345 345 340 327 319 309 284 274 263 260 262 257 246 241 242 240 242 238 226 224 224 221 226 230 232 231 239
266 275 295 305 318 320 333 340 336 330 335 326 329 328 329 334 333 337 335 330 313 316 305 288 276 268 260 250 248 250 232 234 233 231 230 227 218 225 225 224 228 227 234 235
293 292 284 286 285 293 300 298 298 299 301 300 306 305 310 315 320 321 320 316 306 321 320 317 280 250 245 264 267 232 225 226 223 221 222 219 209 215 221 222 224 230 231 233
297 306 311 304 292 282 270 267 272 278 279 281 285 293 298 299 301 303 308 309 310 320 305 311 290 275 264 262 244 234 227 216 212 207 212 204 213 212 208 215 221 223 221 223
283 282 284 284 285 288 291 276 267 272 273 277 277 283 289 294 296 296 294 299 297 300 293 287 281 291 287 242 230 226 211 211 207 205 208 202 213 217 217 214 219 221 224 225
263 265 269 260 256 264 266 268 266 270 272 278 277 283 283 287 291 288 288 291 289 286 280 275 279 287 298 228 206 210 205 209 203 202 203 201 210 216 218 226 227 229 230 235
275 254 247 254 253 253 255 258 259 264 264 268 272 278 283 289 287 281 282 289 289 271 266 255 254 269 288 221 209 199 192 175 179 184 177 187 183 184 177 191 187 212 232 231
357 347 250 236 240 240 243 250 254 252 257 264 267 270 276 282 280 290 289 289 277 268 243 239 228 231 180 211 186 179 182 178 157 165 155 146 139 151 166 167 167 151 147 241
8 359 304 238 230 231 237 243 252 258 254 256 262 271 272 270 269 275 276 282 261 237 236 227 212 191 186 196 196 191 173 166 159 146 141 143 153 161 162 168 175 173 212 226
33 22 18 359 230 230 235 241 248 254 252 254 261 263 271 265 264 264 265 199 206 191 183 187 172 174 170 191 182 168 157 148 147 148 147 150 145 151 163 168 181 210 225 227
34 25 26 34 63 111 122 152 130 131 161 162 123 100 92 145 174 177 177 146 127 129 125 119 153 157 159 167 155 152 134 120 118 124 130 115 120 127 128 132 127 126 118 107
34 38 41 38 45 59 66 73 81 76 76 82 91 89 71 66 81 78 67 83 78 76 100 88 92 113 114 126 115 102 113 107 112 113 119 128 113 111 113 111 108 105 99 86
31 37 52 50 50 54 59 61 68 68 66 71 75 72 66 70 73 77 64 61 65 68 77 86 86 95 99 109 111 109 106 94 97 103 101 98 105 111 114 110 115 113 120 95
26 35 47 56 55 55 60 63 62 59 58 63 67 65 67 67 65 67 64 62 62 67 67 67 79 83 88 88 89 87 90 93 99 108 113 109 102 104 106 102 96 113 121 115
21 24 37 50 55 60 64 64 65 66 66 66 67 67 65 59 59 67 64 55 57 58 52 50 62 75 81 85 80 74 75 76 80 82 81 81 84 86 82 77 76 70 64 52
19 28 31 49 57 67 68 62 63 68 69 69 68 68 66 64 60 59 65 69 69 70 66 56 43 56 63 67 75 81 83 78 67 62 65 77 88 90 93 84 65 60 58 61
12 34 38 38 40 51 56 64 65 62 61 62 64 66 68 69 71 72 67 56 58 73 74 73 65 62 63 71 78 74 70 68 73 85 83 76 74 76 87 93 97 100 86 56
30 25 38 37 39 43 44 49 50 55 62 60 57 56 57 59 62 62 59 61 63 60 63 71 74 71 71 71 65 71 79 79 76 78 74 64 61 66 78 85 91 82 70 64
38 30 31 42 41 38 37 44 45 38 41 50 52 47 46 46 47 49 52 56 57 59 64 58 61 64 69 67 69 71 67 68 76 75 72 69 64 61 48 39 37 32 27 22